Weather History for Natchitoches, LA

Change the Weather History Date:

Thursday, October 10, 2013

  Actual Average Record
Temperature  
Mean Temperature 66 °F -  
Max Temperature 82 °F 79 °F 95 °F (1963)
Min Temperature 51 °F 54 °F 34 °F (1952)
Cooling Degree Days 1    
Growing Degree Days 16 (Base 50)    
Moisture  
Dew Point 57 °F    
Average Humidity 79    
Maximum Humidity 100    
Minimum Humidity 43    
Precipitation  
Precipitation 0.00 in - - ()
Sea Level Pressure  
Sea Level Pressure 30.05 in    
Wind  
Wind Speed 1 mph (SE)    
Max Wind Speed 8 mph    
Max Gust Speed -    
Visibility 9 miles    
Events Fog    
Averages and records for this station are not official NWS values.
T = Trace of Precipitation, MM = Missing Value Source: NWS Daily Summary

Daily Weather History Graph

Daily Weather History Graph

Search for Another Location

Airport:

Trip Planner

Search our weather history database for the weather conditions in past years. The results will help you decide how hot, cold, wet, or windy it might be!

Date:

Astronomy

Oct. 10, 2013 Rise Set
Actual Time 7:12 AM CDT 6:45 PM CDT
Civil Twilight 6:47 AM CDT 7:10 PM CDT
Nautical Twilight 6:19 AM CDT 7:38 PM CDT
Astronomical Twilight 5:51 AM CDT 8:06 PM CDT
Moon 12:51 PM CDT (10/10) 11:37 PM CDT (10/10)
Length of Visible Light 12h 22m
Length of Day
11h 33m
Waxing Crescent, 36% of the Moon is Illuminated
Oct 10
Waxing Crescent
Oct 11
First Quarter
Oct 18
Full
Oct 26
Last Quarter
Nov 3
New

Hourly Weather History & Observations

Time (CDT) Temp. Heat Index Dew Point Humidity Pressure Visibility Wind Dir Wind Speed Gust Speed Precip Events Conditions
12:15 AM 55.8 °F - 55.6 °F 99% 30.06 in 10.0 mi Calm Calm - N/A   Clear
12:35 AM 55.4 °F - 55.0 °F 99% 30.06 in 7.0 mi Calm Calm - N/A   Clear
12:55 AM 54.9 °F - 54.7 °F 99% 30.06 in 10.0 mi Calm Calm - N/A   Clear
1:15 AM 54.7 °F - 54.5 °F 99% 30.06 in 10.0 mi Calm Calm - N/A   Clear
1:35 AM 54.0 °F - 53.8 °F 99% 30.06 in 10.0 mi Calm Calm - N/A   Clear
1:55 AM 53.8 °F - 53.6 °F 99% 30.06 in 10.0 mi Calm Calm - N/A   Clear
2:15 AM 53.6 °F - 53.4 °F 99% 30.07 in 10.0 mi Calm Calm - N/A   Clear
2:35 AM 53.2 °F - 53.1 °F 99% 30.07 in 10.0 mi Calm Calm - N/A   Clear
2:55 AM 52.9 °F - 52.9 °F 100% 30.08 in 7.0 mi Calm Calm - N/A   Clear
3:15 AM 52.9 °F - 52.7 °F 99% 30.08 in 10.0 mi Calm Calm - N/A   Clear
3:35 AM 51.8 °F - 51.8 °F 100% 30.07 in 10.0 mi Calm Calm - N/A   Clear
3:55 AM 52.2 °F - 52.0 °F 99% 30.07 in 10.0 mi Calm Calm - N/A   Clear
4:15 AM 52.3 °F - 52.2 °F 99% 30.07 in 10.0 mi Calm Calm - N/A   Clear
4:35 AM 51.6 °F - 51.4 °F 99% 30.07 in 10.0 mi Calm Calm - N/A   Clear
4:55 AM 51.4 °F - 50.9 °F 98% 30.07 in 10.0 mi Calm Calm - N/A   Clear
5:15 AM 51.6 °F - 51.6 °F 100% 30.08 in 7.0 mi ESE 3.5 mph - N/A   Clear
5:35 AM 51.6 °F - 51.3 °F 99% 30.08 in 10.0 mi Calm Calm - N/A   Scattered Clouds
5:55 AM 51.8 °F - 51.8 °F 100% 30.08 in 7.0 mi Calm Calm - N/A   Clear
6:15 AM 51.3 °F - 51.1 °F 99% 30.08 in 7.0 mi Calm Calm - N/A   Clear
6:35 AM 51.1 °F - 50.9 °F 99% 30.09 in 10.0 mi Calm Calm - N/A   Clear
6:55 AM 51.3 °F - 51.1 °F 99% 30.09 in 7.0 mi Calm Calm - N/A   Clear
7:15 AM 51.1 °F - 51.1 °F 100% 30.09 in 4.0 mi Calm Calm - N/A   Scattered Clouds
7:35 AM 51.8 °F - 51.8 °F 100% 30.09 in 0.2 mi Calm Calm - N/A Fog Fog
7:55 AM 52.2 °F - 52.2 °F 100% 30.10 in 0.2 mi Calm Calm - N/A Fog Fog
8:15 AM 54.3 °F - 54.3 °F 100% 30.10 in 4.0 mi Calm Calm - N/A   Clear
8:35 AM 56.5 °F - 56.5 °F 100% 30.10 in 10.0 mi Calm Calm - N/A   Clear
8:55 AM 59.9 °F - 57.4 °F 91% 30.11 in 10.0 mi Calm Calm - N/A   Clear
9:15 AM 62.6 °F - 59.0 °F 88% 30.11 in 10.0 mi SSE 3.5 mph - N/A   Clear
9:35 AM 64.4 °F - 59.5 °F 84% 30.12 in 10.0 mi Calm Calm - N/A   Clear
9:55 AM 66.6 °F - 60.3 °F 80% 30.12 in 10.0 mi Calm Calm - N/A   Clear
10:15 AM 68.9 °F - 60.3 °F 74% 30.12 in 10.0 mi Calm Calm - N/A   Clear
10:35 AM 71.2 °F - 61.9 °F 72% 30.12 in 10.0 mi SSE 3.5 mph - N/A   Clear
10:55 AM 73.0 °F - 61.9 °F 68% 30.12 in 10.0 mi SE 3.5 mph - N/A   Clear
11:15 AM 74.8 °F - 61.9 °F 64% 30.12 in 10.0 mi Calm Calm - N/A   Clear
11:35 AM 76.6 °F - 61.2 °F 59% 30.12 in 10.0 mi Calm Calm - N/A   Clear
11:55 AM 77.5 °F - 59.9 °F 54% 30.11 in 10.0 mi East 3.5 mph - N/A   Clear
12:15 PM 78.3 °F - 59.7 °F 53% 30.10 in 10.0 mi ESE 3.5 mph - N/A   Clear
12:35 PM 78.8 °F - 59.0 °F 51% 30.09 in 10.0 mi East 3.5 mph - N/A   Clear
12:55 PM 79.5 °F - 58.8 °F 49% 30.09 in 10.0 mi South 3.5 mph - N/A   Clear
1:15 PM 79.7 °F - 57.6 °F 47% 30.08 in 10.0 mi Calm Calm - N/A   Clear
1:35 PM 79.9 °F - 58.1 °F 47% 30.06 in 10.0 mi Calm Calm - N/A   Clear
1:55 PM 80.4 °F 81.0 °F 59.0 °F 48% 30.04 in 10.0 mi ENE 3.5 mph - N/A   Clear
2:15 PM 81.0 °F 81.3 °F 58.8 °F 47% 30.03 in 10.0 mi Calm Calm - N/A   Clear
2:35 PM 80.8 °F 80.9 °F 57.0 °F 44% 30.03 in 10.0 mi South 6.9 mph - N/A   Clear
2:55 PM 81.5 °F 81.4 °F 57.2 °F 43% 30.03 in 10.0 mi South 3.5 mph - N/A   Clear
3:15 PM 81.7 °F 81.5 °F 56.8 °F 43% 30.02 in 10.0 mi East 4.6 mph - N/A   Clear
3:35 PM 81.9 °F 82.1 °F 59.4 °F 46% 30.01 in 10.0 mi SE 4.6 mph - N/A   Clear
3:55 PM 81.7 °F 81.9 °F 59.0 °F 46% 30.01 in 10.0 mi SE 8.1 mph - N/A   Clear
4:15 PM 81.5 °F 81.5 °F 57.6 °F 44% 30.00 in 10.0 mi SE 5.8 mph - N/A   Clear
4:35 PM 81.5 °F 81.4 °F 57.0 °F 43% 30.00 in 10.0 mi East 3.5 mph - N/A   Clear
4:55 PM 81.0 °F 81.1 °F 57.7 °F 45% 29.99 in 10.0 mi SE 5.8 mph - N/A   Clear
5:15 PM 80.4 °F 80.9 °F 58.6 °F 47% 29.99 in 10.0 mi ESE 6.9 mph - N/A   Clear
5:35 PM 79.7 °F - 59.2 °F 49% 29.99 in 10.0 mi SE 6.9 mph - N/A   Clear
5:55 PM 78.4 °F - 59.7 °F 52% 29.99 in 10.0 mi ESE 5.8 mph - N/A   Clear
6:15 PM 77.0 °F - 59.4 °F 54% 29.99 in 10.0 mi SE 5.8 mph - N/A   Clear
6:35 PM 74.8 °F - 60.8 °F 62% 29.99 in 10.0 mi SE 5.8 mph - N/A   Clear
6:55 PM 72.5 °F - 61.3 °F 68% 29.99 in 10.0 mi SE 5.8 mph - N/A   Clear
7:15 PM 70.7 °F - 61.7 °F 73% 30.00 in 10.0 mi South 3.5 mph - N/A   Clear
7:35 PM 68.9 °F - 61.7 °F 78% 29.99 in 10.0 mi South 4.6 mph - N/A   Clear
7:55 PM 68.4 °F - 61.5 °F 79% 30.00 in 10.0 mi South 4.6 mph - N/A   Clear
8:15 PM 68.2 °F - 61.5 °F 79% 30.00 in 10.0 mi SSE 4.6 mph - N/A   Clear
8:35 PM 66.4 °F - 61.3 °F 84% 30.00 in 10.0 mi South 3.5 mph - N/A   Clear
8:55 PM 64.0 °F - 61.7 °F 92% 30.01 in 10.0 mi Calm Calm - N/A   Clear
9:15 PM 62.6 °F - 61.2 °F 95% 30.01 in 10.0 mi Calm Calm - N/A   Clear
9:35 PM 62.4 °F - 61.0 °F 95% 30.01 in 10.0 mi Calm Calm - N/A   Clear
9:55 PM 61.9 °F - 61.0 °F 97% 30.01 in 10.0 mi Calm Calm - N/A   Clear
10:15 PM 61.5 °F - 60.1 °F 95% 30.01 in 10.0 mi Calm Calm - N/A   Clear
10:35 PM 61.7 °F - 60.6 °F 96% 30.00 in 10.0 mi Calm Calm - N/A   Clear
10:55 PM 61.0 °F - 60.3 °F 97% 30.01 in 10.0 mi Calm Calm - N/A   Clear
11:15 PM 61.0 °F - 60.4 °F 98% 30.01 in 10.0 mi Calm Calm - N/A   Clear
11:35 PM 59.5 °F - 59.0 °F 98% 30.01 in 5.0 mi Calm Calm - N/A   Clear
11:55 PM 59.7 °F - 59.2 °F 98% 30.01 in 7.0 mi Calm Calm - N/A   Clear